TWNKLBDS
11 AUCTIONS | Aug 18, 2019 10:00:51
Waterproof LED Mosquito Light
Highest bidder: Bidder 1
Item Condition: New
Seller location: United States
Ends within:

closed

60 seconds will be added to the timer if a bid is received within 60 seconds before timer ends.
# of bids: 246 (Hide history)
USD Value: US$17.99 (for reference only)
Current Bid: 100,500 YEM
Shipping fee: 500 YEM
This auction is closed
Meet the seller
  • Feedback received 133 times
  • Positive feedback: (92%)
  • Member since 07/14/2018
View active auctions

Report this item

Item description

About This Item

Mosquito and fly are annoying and commonly seen in the open air. What we are going to recommend today is this Garden Solar Power LED Mosquito Killer Lamp Yard Plastic Waterproof Lawn Light! The light will be automatically turned on high voltage electrode net and phototaxis lamp according to light brightness. Purple light will produce ultraviolet light radiate with a wavelength of 380mm. Ultraviolet radiation has phototaxis excitement effect for pests, and the high voltage electrode net will kill them after the pests fly to the light source. It is powered by solar energy, quite clean and harmless. Do you want to have a try?

  • Apply ultra purple light to attract insects & mosquitoes while killing them with over 380 volts.
  • With two modes: one mode for lawn light, another mode for mosquito killing.
  • Lighting automatically at night.
  • Solar-Powered
  • Not need to wire, without electricity, low pressure safety, eco-friendly.
  • Widely used for outdoors.
     

    Specifications

    Material: Plastic

    Battery: Built-in Rechargeable 2Pcs 600mAh Ni-Cd

    Solar Panel: 0.3W 4V

    Working Hours: 6-8 Hours

    LED Quantity: 1 Piece Purple, 1 Piece White

    Purle Light Wave Length: 380nm

    Dimensions: (5.32 x 5.32 x 16.54)" / (13.5 x 13.5 x 42)cm (L x W x H)

    Weight: 9.88oz / 280g

    Color: Black

    Package Includes

  • 1 x Mosquito Killer Lamp

Worldwide shipping available (except sanctioned countries and select other countries - if you have any questions about this item and shipping, please contact us), see Shipping conditions and Shipping countries & terms below for more details); allow up to 2 weeks for processing and 4-8 weeks international shipping in select locations (items generally ship from USA and China, so delivery times will vary), buyer will be notified throughout the process via TwnklBds message system as the order is processed and shipped. If you win multiple Shobbit offered items, the items will be grouped and shipped at once, please contact us for assistance.

Shipping Privacy Policy: Select personal data shared will be shared with fulfilment and shipping partners to fulfill your order, please see our Privacy Policy for further details. 

Return Policy: All sales final, however if any item arrives damaged or a manufacturing defect occurs, contact us immediately for assistance.

Additional Information

Country: Las Vegas United States (89128)
Shipping conditions: Buyer pays shipping expenses, International shipping
Shipping countries & terms:  *We reserve the right to substitute a similar item should this item be out of stock or not available in your region

Payment methods: PernumPay
Starting Bid: 1 YEM

Auction started: 2018-11-06 02:52
Auction ends: 2018-12-06 02:52
Auction ID: 1130

Item category: All > Home & Garden > Garden

Bids history

Bidder Bid Time
Bidder 1 100,500 YEM 05 December 2018 - 23:37:01
Bidder 2 100,000 YEM 05 December 2018 - 23:36:47
Bidder 1 100,000 YEM 05 December 2018 - 23:36:47
Bidder 2 97,500 YEM 05 December 2018 - 23:36:28
Bidder 1 97,000 YEM 05 December 2018 - 23:36:28
Bidder 2 95,500 YEM 05 December 2018 - 23:36:14
Bidder 1 95,000 YEM 05 December 2018 - 23:36:14
Bidder 2 92,500 YEM 05 December 2018 - 23:36:02
Bidder 1 92,000 YEM 05 December 2018 - 23:36:02
Bidder 2 90,500 YEM 05 December 2018 - 23:35:46
Bidder 1 90,000 YEM 05 December 2018 - 23:35:46
Bidder 2 87,500 YEM 05 December 2018 - 23:35:35
Bidder 1 87,000 YEM 05 December 2018 - 23:35:35
Bidder 2 84,500 YEM 05 December 2018 - 23:35:26
Bidder 1 84,000 YEM 05 December 2018 - 23:35:26
Bidder 2 82,500 YEM 05 December 2018 - 23:35:13
Bidder 1 82,000 YEM 05 December 2018 - 23:35:13
Bidder 2 80,500 YEM 05 December 2018 - 23:35:05
Bidder 1 80,000 YEM 05 December 2018 - 23:35:05
Bidder 2 77,500 YEM 05 December 2018 - 23:34:52
Bidder 1 77,000 YEM 05 December 2018 - 23:34:52
Bidder 2 75,500 YEM 05 December 2018 - 23:34:29
Bidder 1 75,000 YEM 05 December 2018 - 23:34:29
Bidder 2 73,500 YEM 05 December 2018 - 23:34:04
Bidder 1 73,000 YEM 05 December 2018 - 23:34:04
Bidder 2 71,500 YEM 05 December 2018 - 23:33:51
Bidder 1 71,000 YEM 05 December 2018 - 23:33:51
Bidder 2 69,500 YEM 05 December 2018 - 23:33:25
Bidder 1 69,000 YEM 05 December 2018 - 23:33:25
Bidder 2 67,500 YEM 05 December 2018 - 23:33:14
Bidder 1 67,000 YEM 05 December 2018 - 23:33:14
Bidder 2 65,500 YEM 05 December 2018 - 23:32:58
Bidder 1 65,000 YEM 05 December 2018 - 23:32:58
Bidder 2 62,500 YEM 05 December 2018 - 23:32:48
Bidder 1 62,000 YEM 05 December 2018 - 23:32:48
Bidder 2 60,500 YEM 05 December 2018 - 23:32:39
Bidder 1 60,000 YEM 05 December 2018 - 23:32:39
Bidder 2 58,500 YEM 05 December 2018 - 23:32:26
Bidder 1 58,000 YEM 05 December 2018 - 23:32:26
Bidder 2 56,500 YEM 05 December 2018 - 23:32:17
Bidder 1 56,000 YEM 05 December 2018 - 23:32:17
Bidder 2 54,500 YEM 05 December 2018 - 23:32:05
Bidder 1 54,000 YEM 05 December 2018 - 23:32:05
Bidder 2 52,500 YEM 05 December 2018 - 23:31:52
Bidder 1 52,000 YEM 05 December 2018 - 23:31:52
Bidder 2 51,500 YEM 05 December 2018 - 15:06:40
Bidder 1 51,000 YEM 05 December 2018 - 15:06:40
Bidder 1 50,250 YEM 05 December 2018 - 00:39:13
Bidder 2 50,000 YEM 05 December 2018 - 00:38:53
Bidder 1 50,000 YEM 05 December 2018 - 00:38:53
Bidder 2 49,250 YEM 05 December 2018 - 00:38:36
Bidder 1 49,000 YEM 05 December 2018 - 00:38:36
Bidder 2 47,250 YEM 05 December 2018 - 00:38:22
Bidder 1 47,000 YEM 05 December 2018 - 00:38:22
Bidder 2 46,250 YEM 05 December 2018 - 00:38:05
Bidder 1 46,000 YEM 05 December 2018 - 00:38:05
Bidder 2 45,250 YEM 05 December 2018 - 00:37:35
Bidder 1 45,000 YEM 05 December 2018 - 00:37:35
Bidder 2 44,250 YEM 05 December 2018 - 00:37:18
Bidder 1 44,000 YEM 05 December 2018 - 00:37:18
Bidder 2 43,250 YEM 05 December 2018 - 00:37:04
Bidder 1 43,000 YEM 05 December 2018 - 00:37:04
Bidder 2 42,250 YEM 05 December 2018 - 00:36:54
Bidder 1 42,000 YEM 05 December 2018 - 00:36:54
Bidder 2 41,250 YEM 05 December 2018 - 00:36:42
Bidder 1 41,000 YEM 05 December 2018 - 00:36:42
Bidder 2 40,250 YEM 05 December 2018 - 00:36:30
Bidder 1 40,000 YEM 05 December 2018 - 00:36:30
Bidder 2 39,250 YEM 05 December 2018 - 00:36:05
Bidder 1 39,000 YEM 05 December 2018 - 00:36:05
Bidder 2 38,250 YEM 05 December 2018 - 00:35:54
Bidder 1 38,000 YEM 05 December 2018 - 00:35:54
Bidder 2 37,250 YEM 05 December 2018 - 00:35:28
Bidder 1 37,000 YEM 05 December 2018 - 00:35:28
Bidder 2 36,250 YEM 04 December 2018 - 15:10:11
Bidder 1 36,000 YEM 04 December 2018 - 15:10:11
Bidder 1 35,250 YEM 04 December 2018 - 04:34:25
Bidder 3 35,000 YEM 04 December 2018 - 04:34:11
Bidder 1 35,000 YEM 04 December 2018 - 04:34:11
Bidder 3 34,250 YEM 04 December 2018 - 04:33:57
Bidder 1 34,000 YEM 04 December 2018 - 04:33:57
Bidder 3 33,250 YEM 04 December 2018 - 04:33:40
Bidder 1 33,000 YEM 04 December 2018 - 04:33:40
Bidder 3 32,250 YEM 04 December 2018 - 04:32:08
Bidder 1 32,000 YEM 04 December 2018 - 04:32:08
Bidder 3 31,050 YEM 04 December 2018 - 04:30:48
Bidder 1 30,800 YEM 04 December 2018 - 04:30:48
Bidder 3 30,250 YEM 04 December 2018 - 04:30:27
Bidder 1 30,000 YEM 04 December 2018 - 04:30:27
Bidder 3 29,250 YEM 04 December 2018 - 04:26:04
Bidder 1 29,000 YEM 04 December 2018 - 04:26:04
Bidder 3 28,350 YEM 04 December 2018 - 04:25:39
Bidder 1 28,100 YEM 04 December 2018 - 04:25:39
Bidder 3 27,750 YEM 04 December 2018 - 04:25:22
Bidder 1 27,500 YEM 04 December 2018 - 04:25:22
Bidder 3 27,150 YEM 04 December 2018 - 04:25:05
Bidder 1 26,900 YEM 04 December 2018 - 04:25:05
Bidder 3 26,550 YEM 04 December 2018 - 04:24:40
Bidder 1 26,300 YEM 04 December 2018 - 04:24:40
Bidder 3 25,950 YEM 04 December 2018 - 04:24:24
Bidder 1 25,700 YEM 04 December 2018 - 04:24:24
Bidder 3 25,350 YEM 04 December 2018 - 04:24:07
Bidder 1 25,100 YEM 04 December 2018 - 04:24:07
Bidder 3 24,900 YEM 04 December 2018 - 04:23:53
Bidder 1 24,800 YEM 04 December 2018 - 04:23:53
Bidder 3 24,600 YEM 04 December 2018 - 04:23:43
Bidder 1 24,500 YEM 04 December 2018 - 04:23:43
Bidder 3 24,300 YEM 04 December 2018 - 04:23:35
Bidder 1 24,200 YEM 04 December 2018 - 04:23:35
Bidder 3 24,000 YEM 04 December 2018 - 04:23:16
Bidder 1 23,900 YEM 04 December 2018 - 04:23:16
Bidder 3 23,750 YEM 04 December 2018 - 04:22:53
Bidder 1 23,650 YEM 04 December 2018 - 04:22:53
Bidder 3 23,500 YEM 04 December 2018 - 04:22:37
Bidder 1 23,400 YEM 04 December 2018 - 04:22:37
Bidder 3 23,100 YEM 03 December 2018 - 11:10:55
Bidder 4 23,000 YEM 03 December 2018 - 11:10:55
Bidder 3 21,100 YEM 03 December 2018 - 11:10:48
Bidder 4 21,000 YEM 03 December 2018 - 11:10:48
Bidder 3 19,100 YEM 03 December 2018 - 11:10:43
Bidder 4 19,000 YEM 03 December 2018 - 11:10:43
Bidder 3 17,100 YEM 03 December 2018 - 11:10:36
Bidder 4 17,000 YEM 03 December 2018 - 11:10:36
Bidder 3 13,100 YEM 03 December 2018 - 11:10:31
Bidder 4 13,000 YEM 03 December 2018 - 11:10:31
Bidder 3 12,100 YEM 03 December 2018 - 11:10:24
Bidder 4 12,000 YEM 03 December 2018 - 11:10:24
Bidder 3 11,300 YEM 03 December 2018 - 10:03:09
Bidder 1 11,200 YEM 03 December 2018 - 10:03:09
Bidder 1 11,100 YEM 03 December 2018 - 09:24:40
Bidder 4 11,000 YEM 03 December 2018 - 09:24:24
Bidder 1 11,000 YEM 03 December 2018 - 09:24:24
Bidder 4 10,200 YEM 03 December 2018 - 01:37:54
Bidder 1 10,100 YEM 03 December 2018 - 01:37:54
Bidder 1 10,050 YEM 03 December 2018 - 00:30:12
Bidder 2 10,000 YEM 03 December 2018 - 00:29:47
Bidder 1 10,000 YEM 03 December 2018 - 00:29:47
Bidder 2 9,850 YEM 03 December 2018 - 00:29:19
Bidder 1 9,800 YEM 03 December 2018 - 00:29:19
Bidder 2 9,650 YEM 03 December 2018 - 00:28:57
Bidder 1 9,600 YEM 03 December 2018 - 00:28:57
Bidder 2 9,500 YEM 03 December 2018 - 00:28:37
Bidder 1 9,450 YEM 03 December 2018 - 00:28:37
Bidder 2 9,350 YEM 03 December 2018 - 00:28:18
Bidder 1 9,300 YEM 03 December 2018 - 00:28:18
Bidder 2 9,150 YEM 03 December 2018 - 00:27:52
Bidder 1 9,100 YEM 03 December 2018 - 00:27:52
Bidder 2 8,950 YEM 03 December 2018 - 00:27:28
Bidder 1 8,900 YEM 03 December 2018 - 00:27:28
Bidder 2 8,750 YEM 03 December 2018 - 00:27:06
Bidder 1 8,700 YEM 03 December 2018 - 00:27:06
Bidder 2 8,550 YEM 03 December 2018 - 00:26:39
Bidder 1 8,500 YEM 03 December 2018 - 00:26:39
Bidder 2 8,250 YEM 01 December 2018 - 12:56:37
Bidder 1 8,200 YEM 01 December 2018 - 12:56:37
Bidder 1 4,050 YEM 01 December 2018 - 12:56:24
Bidder 2 4,000 YEM 01 December 2018 - 12:56:24
Bidder 1 2,050 YEM 01 December 2018 - 12:56:10
Bidder 2 2,000 YEM 01 December 2018 - 12:56:10
Bidder 1 1,005 YEM 01 December 2018 - 08:26:40
Bidder 5 1,000 YEM 01 December 2018 - 08:26:40
Bidder 5 805 YEM 01 December 2018 - 06:18:18
Bidder 1 800 YEM 01 December 2018 - 06:18:06
Bidder 5 800 YEM 01 December 2018 - 06:18:06
Bidder 1 785 YEM 30 November 2018 - 07:01:24
Bidder 5 780 YEM 30 November 2018 - 07:01:11
Bidder 1 780 YEM 30 November 2018 - 07:01:11
Bidder 5 775 YEM 30 November 2018 - 07:00:58
Bidder 1 770 YEM 30 November 2018 - 07:00:58
Bidder 5 765 YEM 30 November 2018 - 07:00:45
Bidder 1 760 YEM 30 November 2018 - 07:00:45
Bidder 5 755 YEM 30 November 2018 - 07:00:28
Bidder 1 750 YEM 30 November 2018 - 07:00:28
Bidder 5 735 YEM 30 November 2018 - 06:58:37
Bidder 1 730 YEM 30 November 2018 - 06:58:37
Bidder 1 725 YEM 30 November 2018 - 06:56:16
Bidder 5 720 YEM 30 November 2018 - 06:56:00
Bidder 1 720 YEM 30 November 2018 - 06:56:00
Bidder 5 705 YEM 30 November 2018 - 06:53:24
Bidder 1 700 YEM 30 November 2018 - 06:53:24
Bidder 1 695 YEM 30 November 2018 - 06:53:13
Bidder 5 690 YEM 30 November 2018 - 06:53:13
Bidder 1 685 YEM 30 November 2018 - 06:53:04
Bidder 5 680 YEM 30 November 2018 - 06:53:04
Bidder 1 675 YEM 30 November 2018 - 06:52:53
Bidder 5 670 YEM 30 November 2018 - 06:52:53
Bidder 1 655 YEM 30 November 2018 - 06:52:43
Bidder 5 650 YEM 30 November 2018 - 06:52:43
Bidder 1 605 YEM 30 November 2018 - 01:30:29
Bidder 5 600 YEM 30 November 2018 - 01:29:32
Bidder 1 600 YEM 30 November 2018 - 01:29:32
Bidder 5 535 YEM 30 November 2018 - 01:25:38
Bidder 1 530 YEM 30 November 2018 - 01:25:38
Bidder 5 523 YEM 30 November 2018 - 01:24:47
Bidder 1 518 YEM 30 November 2018 - 01:24:47
Bidder 5 513 YEM 30 November 2018 - 01:23:49
Bidder 1 508 YEM 30 November 2018 - 01:23:49
Bidder 5 502 YEM 29 November 2018 - 19:50:19
Bidder 6 500 YEM 29 November 2018 - 19:50:05
Bidder 5 500 YEM 29 November 2018 - 19:50:05
Bidder 6 402 YEM 29 November 2018 - 19:49:54
Bidder 5 400 YEM 29 November 2018 - 19:49:54
Bidder 6 362 YEM 29 November 2018 - 19:49:42
Bidder 5 360 YEM 29 November 2018 - 19:49:42
Bidder 6 352 YEM 29 November 2018 - 19:49:26
Bidder 5 350 YEM 29 November 2018 - 19:49:26
Bidder 6 342 YEM 29 November 2018 - 19:49:16
Bidder 5 340 YEM 29 November 2018 - 19:49:16
Bidder 6 332 YEM 29 November 2018 - 19:49:02
Bidder 5 330 YEM 29 November 2018 - 19:49:02
Bidder 6 322 YEM 29 November 2018 - 19:48:51
Bidder 5 320 YEM 29 November 2018 - 19:48:51
Bidder 6 312 YEM 29 November 2018 - 19:48:37
Bidder 5 310 YEM 29 November 2018 - 19:48:37
Bidder 6 302 YEM 29 November 2018 - 19:48:27
Bidder 5 300 YEM 29 November 2018 - 19:48:27
Bidder 6 292 YEM 29 November 2018 - 19:48:12
Bidder 5 290 YEM 29 November 2018 - 19:48:12
Bidder 6 282 YEM 29 November 2018 - 19:48:03
Bidder 5 280 YEM 29 November 2018 - 19:48:03
Bidder 6 272 YEM 29 November 2018 - 19:47:53
Bidder 5 270 YEM 29 November 2018 - 19:47:53
Bidder 6 262 YEM 29 November 2018 - 19:47:37
Bidder 5 260 YEM 29 November 2018 - 19:47:37
Bidder 6 252 YEM 29 November 2018 - 15:55:57
Bidder 7 250 YEM 29 November 2018 - 15:55:57
Bidder 6 202 YEM 27 November 2018 - 13:04:14
Bidder 8 200 YEM 27 November 2018 - 13:04:08
Bidder 6 200 YEM 27 November 2018 - 13:04:08
Bidder 8 101 YEM 24 November 2018 - 10:58:52
Bidder 2 100 YEM 24 November 2018 - 10:57:31
Bidder 8 100 YEM 24 November 2018 - 10:57:31
Bidder 2 51 YEM 24 November 2018 - 10:51:57
Bidder 8 50 YEM 24 November 2018 - 10:51:57
Bidder 2 36 YEM 24 November 2018 - 10:43:38
Bidder 8 35 YEM 24 November 2018 - 10:43:38
Bidder 2 31 YEM 24 November 2018 - 10:29:03
Bidder 8 30 YEM 24 November 2018 - 10:29:03
Bidder 2 25 YEM 24 November 2018 - 10:23:58
Bidder 8 24 YEM 24 November 2018 - 10:23:58
Bidder 2 23 YEM 20 November 2018 - 12:45:35
Bidder 9 22 YEM 20 November 2018 - 12:45:35
Bidder 2 21 YEM 18 November 2018 - 13:57:49
Bidder 10 20 YEM 18 November 2018 - 13:57:49
Bidder 10 2 YEM 17 November 2018 - 01:15:09
Bidder 11 1 YEM 12 November 2018 - 04:23:57